Time,TemperatureF,DewpointF,PressureIn,WindDirection,WindDirectionDegrees,WindSpeedMPH,WindSpeedGustMPH,Humidity,HourlyPrecipIn,Conditions,Clouds,dailyrainin,SolarRadiationWatts/m^2,SoftwareType,DateUTC
2013-01-13 00:03:00,0.0,-5.0,-100.00,NNW,330,0.0,4.0,79,0.00,,,0.00,9.000000,,2013-01-13 00:03:00,
2013-01-13 00:12:00,0.0,-5.0,-100.00,NNW,330,0.0,4.0,79,0.00,,,0.00,9.000000,,2013-01-13 00:12:00,
2013-01-13 00:22:00,0.0,-5.0,-100.00,NNW,330,0.0,4.0,79,0.00,,,0.00,9.000000,,2013-01-13 00:22:00,
2013-01-13 00:32:00,0.0,-5.0,-100.00,NNW,330,0.0,4.0,79,0.00,,,0.00,9.000000,,2013-01-13 00:32:00,
2013-01-13 00:40:00,-2.0,-6.0,-100.00,ENE,72,1.0,2.0,81,0.00,,,0.00,0.000000,,2013-01-13 00:40:00,
2013-01-13 01:12:00,-2.0,-6.0,-100.00,ENE,72,1.0,2.0,81,0.00,,,0.00,0.000000,,2013-01-13 01:12:00,
2013-01-13 01:22:00,-2.0,-6.0,-100.00,ENE,72,1.0,2.0,81,0.00,,,0.00,0.000000,,2013-01-13 01:22:00,
2013-01-13 01:32:00,-2.0,-6.0,-100.00,ENE,72,1.0,2.0,81,0.00,,,0.00,0.000000,,2013-01-13 01:32:00,
2013-01-13 01:40:00,-4.0,-8.0,-100.00,SW,231,1.0,5.0,83,0.00,,,0.00,0.000000,,2013-01-13 01:40:00,
2013-01-13 02:02:00,-4.0,-8.0,-100.00,SW,231,1.0,5.0,83,0.00,,,0.00,0.000000,,2013-01-13 02:02:00,
2013-01-13 02:12:00,-4.0,-8.0,-100.00,SW,231,1.0,5.0,83,0.00,,,0.00,0.000000,,2013-01-13 02:12:00,
2013-01-13 02:22:00,-4.0,-8.0,-100.00,SW,231,1.0,5.0,83,0.00,,,0.00,0.000000,,2013-01-13 02:22:00,
2013-01-13 02:32:00,-4.0,-8.0,-100.00,SW,231,1.0,5.0,83,0.00,,,0.00,0.000000,,2013-01-13 02:32:00,
2013-01-13 02:40:00,-3.0,-7.0,-100.00,ESE,106,3.0,6.0,84,0.00,,,0.00,0.000000,,2013-01-13 02:40:00,
2013-01-13 03:02:00,-3.0,-7.0,-100.00,ESE,106,3.0,6.0,84,0.00,,,0.00,0.000000,,2013-01-13 03:02:00,
2013-01-13 03:12:00,-3.0,-7.0,-100.00,ESE,106,3.0,6.0,84,0.00,,,0.00,0.000000,,2013-01-13 03:12:00,
2013-01-13 03:22:00,-3.0,-7.0,-100.00,ESE,106,3.0,6.0,84,0.00,,,0.00,0.000000,,2013-01-13 03:22:00,
2013-01-13 03:32:00,-3.0,-7.0,-100.00,ESE,106,3.0,6.0,84,0.00,,,0.00,0.000000,,2013-01-13 03:32:00,
2013-01-13 03:40:00,-4.0,-8.0,-100.00,South,172,1.0,7.0,82,0.00,,,0.00,0.000000,,2013-01-13 03:40:00,
2013-01-13 04:02:00,-4.0,-8.0,-100.00,South,172,1.0,7.0,82,0.00,,,0.00,0.000000,,2013-01-13 04:02:00,
2013-01-13 04:12:00,-4.0,-8.0,-100.00,South,172,1.0,7.0,82,0.00,,,0.00,0.000000,,2013-01-13 04:12:00,
2013-01-13 04:22:00,-4.0,-8.0,-100.00,South,172,1.0,7.0,82,0.00,,,0.00,0.000000,,2013-01-13 04:22:00,
2013-01-13 04:32:00,-4.0,-8.0,-100.00,South,172,1.0,7.0,82,0.00,,,0.00,0.000000,,2013-01-13 04:32:00,
2013-01-13 04:40:00,-5.0,-9.0,-100.00,NNE,29,0.0,2.0,81,0.00,,,0.00,0.000000,,2013-01-13 04:40:00,
2013-01-13 05:03:00,-5.0,-9.0,-100.00,NNE,29,0.0,2.0,81,0.00,,,0.00,0.000000,,2013-01-13 05:03:00,
2013-01-13 05:12:00,-5.0,-9.0,-100.00,NNE,29,0.0,2.0,81,0.00,,,0.00,0.000000,,2013-01-13 05:12:00,
2013-01-13 05:22:00,-5.0,-9.0,-100.00,NNE,29,0.0,2.0,81,0.00,,,0.00,0.000000,,2013-01-13 05:22:00,
2013-01-13 05:32:00,-5.0,-9.0,-100.00,NNE,29,0.0,2.0,81,0.00,,,0.00,0.000000,,2013-01-13 05:32:00,
2013-01-13 05:40:00,-6.0,-10.0,-100.00,NNE,30,0.0,3.0,81,0.00,,,0.00,0.000000,,2013-01-13 05:40:00,
2013-01-13 06:02:00,-6.0,-10.0,-100.00,NNE,30,0.0,3.0,81,0.00,,,0.00,0.000000,,2013-01-13 06:02:00,
2013-01-13 06:12:00,-6.0,-10.0,-100.00,NNE,30,0.0,3.0,81,0.00,,,0.00,0.000000,,2013-01-13 06:12:00,
2013-01-13 06:22:00,-6.0,-10.0,-100.00,NNE,30,0.0,3.0,81,0.00,,,0.00,0.000000,,2013-01-13 06:22:00,
2013-01-13 06:32:00,-6.0,-10.0,-100.00,NNE,30,0.0,3.0,81,0.00,,,0.00,0.000000,,2013-01-13 06:32:00,
2013-01-13 06:40:00,-8.0,-12.0,-100.00,NNW,332,0.0,3.0,81,0.00,,,0.00,0.000000,,2013-01-13 06:40:00,
2013-01-13 07:02:00,-8.0,-12.0,-100.00,NNW,332,0.0,3.0,81,0.00,,,0.00,0.000000,,2013-01-13 07:02:00,
2013-01-13 07:12:00,-8.0,-12.0,-100.00,NNW,332,0.0,3.0,81,0.00,,,0.00,0.000000,,2013-01-13 07:12:00,
2013-01-13 07:22:00,-8.0,-12.0,-100.00,NNW,332,0.0,3.0,81,0.00,,,0.00,0.000000,,2013-01-13 07:22:00,
2013-01-13 07:32:00,-8.0,-12.0,-100.00,NNW,332,0.0,3.0,81,0.00,,,0.00,0.000000,,2013-01-13 07:32:00,
2013-01-13 07:40:00,-8.0,-12.0,-100.00,SSW,194,2.0,3.0,82,0.00,,,0.00,0.000000,,2013-01-13 07:40:00,
2013-01-13 08:02:00,-8.0,-12.0,-100.00,SSW,194,2.0,3.0,82,0.00,,,0.00,0.000000,,2013-01-13 08:02:00,
2013-01-13 08:11:00,-8.0,-12.0,-100.00,SSW,194,2.0,3.0,82,0.00,,,0.00,0.000000,,2013-01-13 08:11:00,
2013-01-13 08:22:00,-8.0,-12.0,-100.00,SSW,194,2.0,3.0,82,0.00,,,0.00,0.000000,,2013-01-13 08:22:00,
2013-01-13 08:32:00,-8.0,-12.0,-100.00,SSW,194,2.0,3.0,82,0.00,,,0.00,0.000000,,2013-01-13 08:32:00,
2013-01-13 08:40:00,-8.0,-12.0,-100.00,SSW,211,0.0,4.0,81,0.00,,,0.00,0.000000,,2013-01-13 08:40:00,
2013-01-13 09:02:00,-8.0,-12.0,-100.00,SSW,211,0.0,4.0,81,0.00,,,0.00,0.000000,,2013-01-13 09:02:00,
2013-01-13 09:12:00,-8.0,-12.0,-100.00,SSW,211,0.0,4.0,81,0.00,,,0.00,0.000000,,2013-01-13 09:12:00,
2013-01-13 09:22:00,-8.0,-12.0,-100.00,SSW,211,0.0,4.0,81,0.00,,,0.00,0.000000,,2013-01-13 09:22:00,
2013-01-13 09:32:00,-8.0,-12.0,-100.00,SSW,211,0.0,4.0,81,0.00,,,0.00,0.000000,,2013-01-13 09:32:00,
2013-01-13 09:40:00,-7.0,-11.0,-100.00,SSW,205,2.0,4.0,81,0.00,,,0.00,0.000000,,2013-01-13 09:40:00,
2013-01-13 10:02:00,-7.0,-11.0,-100.00,SSW,205,2.0,4.0,81,0.00,,,0.00,0.000000,,2013-01-13 10:02:00,
2013-01-13 10:12:00,-7.0,-11.0,-100.00,SSW,205,2.0,4.0,81,0.00,,,0.00,0.000000,,2013-01-13 10:12:00,
2013-01-13 10:22:00,-7.0,-11.0,-100.00,SSW,205,2.0,4.0,81,0.00,,,0.00,0.000000,,2013-01-13 10:22:00,
2013-01-13 10:32:00,-7.0,-11.0,-100.00,SSW,205,2.0,4.0,81,0.00,,,0.00,0.000000,,2013-01-13 10:32:00,
2013-01-13 10:40:00,-6.0,-10.0,-100.00,South,188,2.0,5.0,81,0.00,,,0.00,0.000000,,2013-01-13 10:40:00,
2013-01-13 11:02:00,-6.0,-10.0,-100.00,South,188,2.0,5.0,81,0.00,,,0.00,0.000000,,2013-01-13 11:02:00,
2013-01-13 11:12:00,-6.0,-10.0,-100.00,South,188,2.0,5.0,81,0.00,,,0.00,0.000000,,2013-01-13 11:12:00,
2013-01-13 11:22:00,-6.0,-10.0,-100.00,South,188,2.0,5.0,81,0.00,,,0.00,0.000000,,2013-01-13 11:22:00,
2013-01-13 11:32:00,-6.0,-10.0,-100.00,South,188,2.0,5.0,81,0.00,,,0.00,0.000000,,2013-01-13 11:32:00,
2013-01-13 11:40:00,-6.0,-10.0,-100.00,ENE,67,0.0,4.0,81,0.00,,,0.00,0.000000,,2013-01-13 11:40:00,
2013-01-13 12:03:00,-6.0,-10.0,-100.00,ENE,67,0.0,4.0,81,0.00,,,0.00,0.000000,,2013-01-13 12:03:00,
2013-01-13 12:12:00,-6.0,-10.0,-100.00,ENE,67,0.0,4.0,81,0.00,,,0.00,0.000000,,2013-01-13 12:12:00,
2013-01-13 12:22:00,-6.0,-10.0,-100.00,ENE,67,0.0,4.0,81,0.00,,,0.00,0.000000,,2013-01-13 12:22:00,
2013-01-13 12:32:00,-6.0,-10.0,-100.00,ENE,67,0.0,4.0,81,0.00,,,0.00,0.000000,,2013-01-13 12:32:00,
2013-01-13 12:40:00,-6.0,-10.0,-100.00,South,173,1.0,4.0,81,0.00,,,0.00,0.000000,,2013-01-13 12:40:00,
2013-01-13 13:02:00,-6.0,-10.0,-100.00,South,173,1.0,4.0,81,0.00,,,0.00,0.000000,,2013-01-13 13:02:00,
2013-01-13 13:12:00,-6.0,-10.0,-100.00,South,173,1.0,4.0,81,0.00,,,0.00,0.000000,,2013-01-13 13:12:00,
2013-01-13 13:22:00,-6.0,-10.0,-100.00,South,173,1.0,4.0,81,0.00,,,0.00,0.000000,,2013-01-13 13:22:00,
2013-01-13 13:32:00,-6.0,-10.0,-100.00,South,173,1.0,4.0,81,0.00,,,0.00,0.000000,,2013-01-13 13:32:00,
2013-01-13 13:40:00,-8.0,-12.0,-100.00,SW,220,0.0,1.0,80,0.00,,,0.00,0.000000,,2013-01-13 13:40:00,
2013-01-13 14:02:00,-8.0,-12.0,-100.00,SW,220,0.0,1.0,80,0.00,,,0.00,0.000000,,2013-01-13 14:02:00,
2013-01-13 14:12:00,-8.0,-12.0,-100.00,SW,220,0.0,1.0,80,0.00,,,0.00,0.000000,,2013-01-13 14:12:00,
2013-01-13 14:22:00,-8.0,-12.0,-100.00,SW,220,0.0,1.0,80,0.00,,,0.00,0.000000,,2013-01-13 14:22:00,
2013-01-13 14:33:00,-8.0,-12.0,-100.00,SW,220,0.0,1.0,80,0.00,,,0.00,0.000000,,2013-01-13 14:33:00,
2013-01-13 14:40:00,-5.0,-9.0,-100.00,North,7,1.0,3.0,82,0.00,,,0.00,0.000000,,2013-01-13 14:40:00,
2013-01-13 15:03:00,-5.0,-9.0,-100.00,North,7,1.0,3.0,82,0.00,,,0.00,0.000000,,2013-01-13 15:03:00,
2013-01-13 15:12:00,-5.0,-9.0,-100.00,North,7,1.0,3.0,82,0.00,,,0.00,0.000000,,2013-01-13 15:12:00,
2013-01-13 15:22:00,-5.0,-9.0,-100.00,North,7,1.0,3.0,82,0.00,,,0.00,0.000000,,2013-01-13 15:22:00,
2013-01-13 15:33:00,-5.0,-9.0,-100.00,North,7,1.0,3.0,82,0.00,,,0.00,0.000000,,2013-01-13 15:33:00,
2013-01-13 15:40:00,-5.0,-9.0,-100.00,NNE,16,1.0,4.0,82,0.00,,,0.00,0.000000,,2013-01-13 15:40:00,
2013-01-13 16:03:00,-5.0,-9.0,-100.00,NNE,16,1.0,4.0,82,0.00,,,0.00,0.000000,,2013-01-13 16:03:00,
2013-01-13 16:12:00,-5.0,-9.0,-100.00,NNE,16,1.0,4.0,82,0.00,,,0.00,0.000000,,2013-01-13 16:12:00,
2013-01-13 16:22:00,-5.0,-9.0,-100.00,NNE,16,1.0,4.0,82,0.00,,,0.00,0.000000,,2013-01-13 16:22:00,
2013-01-13 16:33:00,-5.0,-9.0,-100.00,NNE,16,1.0,4.0,82,0.00,,,0.00,0.000000,,2013-01-13 16:33:00,
2013-01-13 16:40:00,-3.0,-7.0,-100.00,NE,48,1.0,5.0,82,0.00,,,0.00,12.000000,,2013-01-13 16:40:00,
2013-01-13 17:03:00,-3.0,-7.0,-100.00,NE,48,1.0,5.0,82,0.00,,,0.00,12.000000,,2013-01-13 17:03:00,
2013-01-13 17:12:00,-3.0,-7.0,-100.00,NE,48,1.0,5.0,82,0.00,,,0.00,12.000000,,2013-01-13 17:12:00,
2013-01-13 17:22:00,-3.0,-7.0,-100.00,NE,48,1.0,5.0,82,0.00,,,0.00,12.000000,,2013-01-13 17:22:00,
2013-01-13 17:32:00,-3.0,-7.0,-100.00,NE,48,1.0,5.0,82,0.00,,,0.00,12.000000,,2013-01-13 17:32:00,
2013-01-13 17:40:00,0.0,-4.0,-100.00,East,81,2.0,5.0,81,0.00,,,0.00,35.000000,,2013-01-13 17:40:00,
2013-01-13 18:03:00,0.0,-4.0,-100.00,East,81,2.0,5.0,81,0.00,,,0.00,35.000000,,2013-01-13 18:03:00,
2013-01-13 18:12:00,0.0,-4.0,-100.00,East,81,2.0,5.0,81,0.00,,,0.00,35.000000,,2013-01-13 18:12:00,
2013-01-13 18:22:00,0.0,-4.0,-100.00,East,81,2.0,5.0,81,0.00,,,0.00,35.000000,,2013-01-13 18:22:00,
2013-01-13 18:32:00,0.0,-4.0,-100.00,East,81,2.0,5.0,81,0.00,,,0.00,35.000000,,2013-01-13 18:32:00,
2013-01-13 19:02:00,12.0,6.0,-100.00,NW,319,1.0,5.0,75,0.00,,,0.00,83.000000,,2013-01-13 19:02:00,
2013-01-13 19:40:00,9.0,-5.0,-100.00,SW,234,5.0,10.0,52,-99.99,,,0.00,158.000000,,2013-01-13 19:40:00,
2013-01-13 20:02:00,9.0,-5.0,-100.00,SW,234,5.0,10.0,52,-99.99,,,0.00,158.000000,,2013-01-13 20:02:00,
2013-01-13 20:40:00,7.0,-6.0,-100.00,NE,55,1.0,7.0,55,0.01,,,0.01,150.000000,,2013-01-13 20:40:00,
2013-01-13 21:03:00,7.0,-6.0,-100.00,NE,55,1.0,7.0,55,0.01,,,0.01,150.000000,,2013-01-13 21:03:00,
2013-01-13 21:12:00,7.0,-6.0,-100.00,NE,55,1.0,7.0,55,0.01,,,0.01,150.000000,,2013-01-13 21:12:00,
2013-01-13 21:23:00,7.0,-6.0,-100.00,NE,55,1.0,7.0,55,0.01,,,0.01,150.000000,,2013-01-13 21:23:00,
2013-01-13 21:32:00,7.0,-6.0,-100.00,NE,55,1.0,7.0,55,0.01,,,0.01,150.000000,,2013-01-13 21:32:00,
2013-01-13 21:40:00,1.0,-6.0,-100.00,East,80,2.0,4.0,70,0.00,,,0.01,79.000000,,2013-01-13 21:40:00,
2013-01-13 22:02:00,1.0,-6.0,-100.00,East,80,2.0,4.0,70,0.00,,,0.01,79.000000,,2013-01-13 22:02:00,
2013-01-13 22:12:00,1.0,-6.0,-100.00,East,80,2.0,4.0,70,0.00,,,0.01,79.000000,,2013-01-13 22:12:00,
2013-01-13 22:22:00,1.0,-6.0,-100.00,East,80,2.0,4.0,70,0.00,,,0.01,79.000000,,2013-01-13 22:22:00,
2013-01-13 22:33:00,1.0,-6.0,-100.00,East,80,2.0,4.0,70,0.00,,,0.01,79.000000,,2013-01-13 22:33:00,
2013-01-13 22:40:00,0.0,-7.0,-100.00,SSW,206,1.0,3.0,71,0.00,,,0.01,41.000000,,2013-01-13 22:40:00,
2013-01-13 23:02:00,0.0,-7.0,-100.00,SSW,206,1.0,3.0,71,0.00,,,0.01,41.000000,,2013-01-13 23:02:00,
2013-01-13 23:12:00,0.0,-7.0,-100.00,SSW,206,1.0,3.0,71,0.00,,,0.01,41.000000,,2013-01-13 23:12:00,
2013-01-13 23:22:00,0.0,-7.0,-100.00,SSW,206,1.0,3.0,71,0.00,,,0.01,41.000000,,2013-01-13 23:22:00,
2013-01-13 23:32:00,0.0,-7.0,-100.00,SSW,206,1.0,3.0,71,0.00,,,0.01,41.000000,,2013-01-13 23:32:00,
2013-01-13 23:40:00,-2.0,-8.0,-100.00,SSE,158,1.0,3.0,76,0.00,,,0.01,9.000000,,2013-01-13 23:40:00,